DW9989 Weather Reports


Display with metric or nautical units.
time (UTC)temp
F
wind
direction
speed
MPH
gust
MPH
rain 1hr
in
rain 24hr
in
rain mn
in
humidity
%
barometer
mb
20260505010516 75 103 8.0 14.0 0.00 0.00 0.00 71 1014.8
20260505005536 76 99 7.0 11.0 0.00 0.00 0.00 70 1014.8
20260505004516 76 107 8.0 13.0 0.00 0.00 0.00 70 1014.4
20260505003516 76 100 7.0 14.0 0.00 0.00 0.00 69 1014.4
20260505002516 77 99 8.0 13.0 0.00 0.00 0.00 68 1014.5
20260505001516 77 85 7.0 15.0 0.00 0.00 0.00 68 1014.4
20260505000536 78 96 8.0 13.0 0.00 0.00 0.00 66 1013.9
20260504235536 79 93 7.0 15.0 0.00 0.00 0.00 65 1013.7
20260504234516 79 99 5.0 9.0 0.00 0.00 0.00 64 1013.6
20260504233516 80 93 7.0 16.0 0.00 0.00 0.00 63 1013.7
20260504232556 81 97 7.0 16.0 0.00 0.00 0.00 62 1013.6
20260504231536 81 85 7.0 13.0 0.00 0.00 0.00 61 1013.6
20260504230637 82 105 7.0 16.0 0.00 0.00 0.00 60 1013.5
20260504225516 82 57 8.0 15.0 0.00 0.00 0.00 63 1013.4
20260504224516 82 94 7.0 12.0 0.00 0.00 0.00 58 1013.3
20260504223516 83 82 5.0 10.0 0.00 0.00 0.00 58 1013.4
20260504222516 82 91 7.0 12.0 0.00 0.00 0.00 58 1013.5
20260504221556 83 103 6.0 12.0 0.00 0.00 0.00 56 1013.4
20260504220556 83 88 5.0 9.0 0.00 0.00 0.00 57 1013.4
20260504215656 84 89 7.0 12.0 0.00 0.00 0.00 54 1013.4
20260504214516 84 94 6.0 14.0 0.00 0.00 0.00 54 1013.4
20260504213556 84 66 8.0 12.0 0.00 0.00 0.00 54 1013.4
20260504212516 83 70 6.0 10.0 0.00 0.00 0.00 57 1013.3
20260504211516 84 48 9.0 14.0 0.00 0.00 0.00 55 1013.4
20260504210536 86 107 4.0 8.0 0.00 0.00 0.00 49 1013.4
20260504205636 85 131 4.0 10.0 0.00 0.00 0.00 50 1013.4
20260504204536 85 115 8.0 14.0 0.00 0.00 0.00 50 1013.5
20260504203516 83 62 3.0 6.0 0.00 0.00 0.00 50 1013.4
20260504202516 84 73 6.0 9.0 0.00 0.00 0.00 52 1013.6
20260504201516 85 93 9.0 16.0 0.00 0.00 0.00 49 1013.7
20260504200516 85 29 7.0 12.0 0.00 0.00 0.00 53 1013.8
20260504195515 86 105 5.0 9.0 0.00 0.00 0.00 47 1013.9
20260504194536 86 139 8.0 16.0 0.00 0.00 0.00 47 1013.9
20260504193636 86 88 4.0 9.0 0.00 0.00 0.00 47 1014.2
20260504192516 85 120 7.0 11.0 0.00 0.00 0.00 48 1014.1
20260504191536 84 47 7.0 15.0 0.00 0.00 0.00 52 1014.2
20260504190515 85 92 8.0 13.0 0.00 0.00 0.00 48 1014.6
20260504185556 83 76 5.0 10.0 0.00 0.00 0.00 50 1014.5
20260504184556 83 78 8.0 13.0 0.00 0.00 0.00 49 1014.8
20260504183616 85 69 7.0 14.0 0.00 0.00 0.00 47 1015.2
20260504182516 84 91 5.0 11.0 0.00 0.00 0.00 53 1015.5
20260504181535 83 102 7.0 13.0 0.00 0.00 0.00 51 1015.8
20260504180515 83 52 7.0 16.0 0.00 0.00 0.00 52 1015.7
20260504175515 83 135 4.0 8.0 0.00 0.00 0.00 51 1015.7
20260504174515 82 56 7.0 12.0 0.00 0.00 0.00 53 1015.8
20260504173535 82 82 5.0 11.0 0.00 0.00 0.00 52 1016.2
20260504172535 82 77 4.0 13.0 0.00 0.00 0.00 54 1016.0
20260504171515 81 60 10.0 16.0 0.00 0.00 0.00 56 1016.3
20260504170555 81 55 6.0 11.0 0.00 0.00 0.00 55 1016.1
20260504150517 78 62 10.0 14.0 0.00 0.00 0.00 61 1017.2
20260504140537 75 65 11.0 16.0 0.00 0.00 0.00 72 1017.0
20260504130537 72 52 10.0 15.0 0.00 0.00 0.00 74 1016.8
20260504110537 66 33 9.0 12.0 0.00 0.00 0.00 85 1015.9
20260504100536 67 27 9.0 12.0 0.00 0.00 0.00 86 1015.7
20260504081516 68 28 8.0 11.0 0.00 0.01 0.00 84 1015.4
20260504080516 68 28 8.0 12.0 0.00 0.01 0.00 85 1015.5
20260504050516 69 54 4.0 9.0 0.00 0.02 0.00 82 1016.5
20260504045516 70 54 4.0 5.0 0.00 0.02 0.00 84 1016.5
20260504044516 70 52 3.0 5.0 0.00 0.02 0.00 82 1016.9
20260504043516 70 51 5.0 8.0 0.00 0.02 0.00 82 1017.1
20260504042556 70 58 3.0 5.0 0.00 0.02 0.00 82 1017.0
20260504041516 70 68 3.0 5.0 0.00 0.03 0.00 82 1017.3
20260504040516 70 45 3.0 5.0 0.00 0.03 0.00 82 1017.5
20260504035516 70 51 4.0 6.0 0.00 0.03 0.03 82 1017.5
20260504034536 71 51 3.0 5.0 0.00 0.03 0.03 83 1017.5
20260504033516 70 48 2.0 4.0 0.00 0.04 0.03 82 1017.4
20260504032536 71 70 3.0 5.0 0.00 0.04 0.03 82 1017.2
20260504030516 71 83 3.0 7.0 0.00 0.04 0.03 80 1017.1
20260504025556 71 75 3.0 8.0 0.00 0.04 0.03 81 1017.0
20260504024556 72 77 3.0 7.0 0.00 0.04 0.03 80 1017.2
20260504023516 72 79 3.0 7.0 0.00 0.04 0.03 79 1017.1
20260504022537 72 83 4.0 8.0 0.00 0.04 0.03 79 1016.9
20260504021536 72 88 2.0 5.0 0.00 0.04 0.03 80 1016.9
20260504020516 72 96 4.0 9.0 0.00 0.04 0.03 79 1016.7
20260504015516 72 91 3.0 8.0 0.00 0.04 0.03 79 1016.5
20260504014516 72 86 4.0 8.0 0.00 0.04 0.03 78 1016.5
20260504013536 73 89 4.0 8.0 0.00 0.04 0.03 79 1016.5
20260504012516 73 100 5.0 9.0 0.00 0.04 0.03 78 1016.3
20260504011556 73 100 4.0 7.0 0.00 0.04 0.03 76 1016.3